TimeICT,TemperatureF,Dew PointF,Humidity,Sea Level PressureIn,VisibilityMPH,Wind Direction,Wind SpeedMPH,Gust SpeedMPH,PrecipitationIn,Events,Conditions,WindDirDegrees,DateUTC
12:00 AM,77.0,75.2,94,29.74,5.6,Calm,Calm,-,N/A,,Mostly Cloudy,0,2013-10-04 17:00:00
12:30 AM,77.0,75.2,94,29.74,5.6,Calm,Calm,-,N/A,,Mostly Cloudy,0,2013-10-04 17:30:00
1:00 AM,77.0,75.2,94,29.71,5.6,Calm,Calm,-,N/A,,Mostly Cloudy,0,2013-10-04 18:00:00
7:00 AM,77.0,75.2,94,29.74,5.6,NE,5.8,-,N/A,,Mostly Cloudy,40,2013-10-05 00:00:00
7:30 AM,77.0,75.2,94,29.74,5.6,NE,6.9,-,N/A,,Mostly Cloudy,40,2013-10-05 00:30:00
8:00 AM,78.8,75.2,89,29.74,5.6,NE,8.1,-,N/A,,Mostly Cloudy,40,2013-10-05 01:00:00
8:30 AM,78.8,75.2,89,29.77,5.6,ENE,8.1,-,N/A,,Mostly Cloudy,60,2013-10-05 01:30:00
9:00 AM,80.6,75.2,84,29.77,5.6,ENE,8.1,-,N/A,,Mostly Cloudy,60,2013-10-05 02:00:00
9:30 AM,80.6,75.2,84,29.77,5.6,ENE,10.4,-,N/A,,Mostly Cloudy,70,2013-10-05 02:30:00
10:00 AM,80.6,75.2,84,29.77,5.6,East,6.9,-,N/A,,Mostly Cloudy,80,2013-10-05 03:00:00
10:30 AM,82.4,75.2,79,29.77,5.6,ENE,6.9,-,N/A,,Mostly Cloudy,60,2013-10-05 03:30:00
11:30 AM,82.4,73.4,74,29.74,5.6,East,9.2,-,N/A,,Mostly Cloudy,90,2013-10-05 04:30:00
12:00 PM,82.4,75.2,79,29.71,6.2,East,6.9,-,N/A,,Scattered Clouds,80,2013-10-05 05:00:00
12:30 PM,84.2,75.2,74,29.71,6.2,ENE,5.8,-,N/A,,Scattered Clouds,70,2013-10-05 05:30:00
1:00 PM,78.8,75.2,89,29.68,6.2,ENE,17.3,-,N/A,,Mostly Cloudy,60,2013-10-05 06:00:00
1:30 PM,80.6,75.2,84,29.68,6.2,ENE,12.7,-,N/A,,Mostly Cloudy,60,2013-10-05 06:30:00
2:00 PM,82.4,75.2,79,29.65,6.2,East,10.4,-,N/A,,Mostly Cloudy,80,2013-10-05 07:00:00
2:30 PM,84.2,75.2,74,29.65,6.2,ENE,8.1,-,N/A,,Mostly Cloudy,60,2013-10-05 07:30:00
3:00 PM,84.2,73.4,70,29.62,6.2,East,5.8,-,N/A,,Mostly Cloudy,80,2013-10-05 08:00:00
3:30 PM,84.2,75.2,74,29.62,6.2,SE,4.6,-,N/A,,Mostly Cloudy,130,2013-10-05 08:30:00
4:00 PM,84.2,75.2,74,29.62,5.6,Variable,1.2,-,N/A,Rain,Light Rain,0,2013-10-05 09:00:00
4:30 PM,80.6,75.2,84,29.62,5.6,SE,2.3,-,N/A,,Mostly Cloudy,140,2013-10-05 09:30:00
5:30 PM,80.6,75.2,84,29.68,5.6,East,9.2,-,N/A,Rain,Light Rain,80,2013-10-05 10:30:00
6:00 PM,80.6,75.2,84,29.68,5.0,East,5.8,-,N/A,Rain-Thunderstorm,Light Thunderstorms and Rain,80,2013-10-05 11:00:00
6:30 PM,78.8,75.2,89,29.68,5.6,ENE,5.8,-,N/A,,Mostly Cloudy,70,2013-10-05 11:30:00
7:00 PM,77.0,75.2,94,29.68,5.6,SSE,3.5,-,N/A,,Mostly Cloudy,150,2013-10-05 12:00:00
7:30 PM,78.8,75.2,89,29.71,5.6,ESE,10.4,-,N/A,,Mostly Cloudy,120,2013-10-05 12:30:00
8:00 PM,78.8,75.2,89,29.71,5.6,SE,10.4,-,N/A,,Mostly Cloudy,140,2013-10-05 13:00:00
8:30 PM,78.8,75.2,89,29.74,5.6,ESE,8.1,-,N/A,,Mostly Cloudy,120,2013-10-05 13:30:00
9:00 PM,77.0,75.2,94,29.74,5.0,ESE,11.5,-,N/A,Rain,Rain,120,2013-10-05 14:00:00
9:30 PM,77.0,75.2,94,29.74,5.0,East,8.1,-,N/A,Rain,Light Rain,90,2013-10-05 14:30:00
10:00 PM,77.0,75.2,94,29.74,5.6,ENE,4.6,-,N/A,,Mostly Cloudy,60,2013-10-05 15:00:00
10:30 PM,77.0,75.2,94,29.74,5.6,ENE,4.6,-,N/A,,Mostly Cloudy,60,2013-10-05 15:30:00
11:00 PM,77.0,75.2,94,29.74,5.6,Calm,Calm,-,N/A,,Mostly Cloudy,0,2013-10-05 16:00:00
11:30 PM,77.0,75.2,94,29.74,5.6,Calm,Calm,-,N/A,,Unknown,0,2013-10-05 16:30:00